Regional Weather Roundup
Issued by NWS Cleveland, OH

Home | Current Version | Previous Version | Text Only | Print | Product List | Glossary Off
Versions: 1 2 3 4 5 6 7 8 9 10 11 12 13 14 15 16 17 18 19 20 21 22 23 24 25 26 27 28 29 30 31 32 33 34 35 36 37 38 39 40 41 42 43 44 45 46 47 48 49 50

950
ASUS41 KCLE 222200
RWRCLE
OHIO REGIONAL WEATHER ROUNDUP
NATIONAL WEATHER SERVICE WILMINGTON, OH
600 PM EDT TUE AUG 22 2017

NOTE: "FAIR" INDICATES FEW OR NO CLOUDS BELOW 12,000 FEET WITH NO
SIGNIFICANT WEATHER AND/OR OBSTRUCTIONS TO VISIBILITY.

OHZ001>008-015>018-024>027-034-035-043-044-222300-
   NORTHWEST OHIO

CITY           SKY/WX    TMP DP  RH WIND       PRES   REMARKS
DEFIANCE       FAIR      76  64  66 NW15G24   29.85R
FINDLAY        FAIR      78  64  61 W13G22    29.83R
TOLEDO EXPRESS FAIR      76  63  64 W21G31    29.82R
TOLEDO EXEC    PTSUNNY   77  69  76 W10       29.82R
LIMA           FAIR      79  66  64 W17       29.87R
$$

OHZ009>014-019>023-028>033-038-089-222300-
   NORTHEAST OHIO

CITY           SKY/WX    TMP DP  RH WIND       PRES   REMARKS
CLE-HOPKINS    FAIR      80  67  64 SW20      29.81S
CLE-LAKEFRONT  FAIR      81  66  60 SW16      29.78R
CUY CO. ARPT   PTSUNNY   81  63  54 W16       29.80S
LORAIN-ELYRIA  FAIR      77  62  59 W15G23    29.82R
ASHTABULA      FAIR      76  69  79 W10       29.80R
AKRON-CANTON   PTSUNNY   80  62  54 W21G26    29.84R
WOOSTER        NOT AVBL
MANSFIELD      FAIR      77  67  71 SW10G23   29.86S
YOUNGSTOWN     PTSUNNY   78  65  63 W13G25    29.82R
$$

OHZ042-051>053-060>062-070>072-077>081-222300-
  SOUTHWEST OHIO

CITY           SKY/WX    TMP DP  RH WIND       PRES   REMARKS
CINC-COVINGTON PTSUNNY   76  70  82 W7        29.92S
CINC-LUNKEN    CLOUDY    79  69  71 W9        29.91S
HAMILTON       PTSUNNY   80  69  69 W8        29.91S
DAYTON         NOT AVBL
WRIGHT-PAT AFB FAIR      81  68  63 W12       29.89S
DAYTON GENERAL PTSUNNY   78  67  68 W9        29.90R
WILMINGTON     CLOUDY    77  69  76 W12       29.91R
$$

OHZ036-037-039>041-045>050-054>059-063>069-073>076-082>088-222300-
  CENTRAL AND SOUTHEAST OHIO

CITY           SKY/WX    TMP DP  RH WIND       PRES   REMARKS
COLUMBUS       PTSUNNY   79  68  69 W13       29.87S
OSU AIRPORT    FAIR      78  69  73 W15       29.87S
BOLTON FIELD   PTSUNNY   79  70  73 W8        29.89S
RICKENBACK AFB NOT AVBL
NEWARK         CLOUDY    76  68  76 W5        29.87S
MARION         FAIR      77  66  68 W9        29.86S
LANCASTER      FAIR      78  70  76 W6        29.88F
ZANESVILLE     FAIR      79  71  76 SW8       29.87S
NEW PHILLY     FAIR      77  66  68 W8G17     29.87R
$$




USA.gov is the U.S. government's official web portal to all federal, state and local government web resources and services.